Wetbulb
72.42 72.33 71.92 69.99 70.71 71.75 71.52 70.35 70.43 69.99 68.52 66.67 67.54 66.88 66.04 65.01 64.94 64.37 63.27 64.50 62.75 62.20
72.86 73.11 73.01 71.57 70.27 70.25 70.08 69.94 70.37 69.70 68.72 67.12 66.52 67.88 66.41 65.12 64.43 65.41 63.64 62.44 62.15 62.78
72.56 72.95 73.48 72.46 71.15 69.54 69.58 70.04 69.67 69.79 68.95 67.87 66.00 67.66 66.59 65.25 64.92 64.65 64.47 63.97 63.43 62.67
73.24 72.74 72.70 73.61 72.64 71.92 69.74 70.18 69.44 70.36 69.34 68.60 67.13 66.47 66.82 65.23 65.58 64.54 64.69 64.92 63.22 63.09
73.58 73.51 72.90 72.46 73.68 72.54 71.86 70.42 70.56 70.15 69.75 69.35 68.26 67.22 67.49 65.86 65.88 65.40 64.40 64.45 63.84 63.17
74.08 73.98 73.73 73.08 73.08 73.15 72.04 71.31 70.71 70.32 69.98 69.20 68.95 68.20 67.89 67.13 65.73 64.96 65.38 65.01 63.98 63.35
73.81 74.72 74.69 74.13 73.28 73.08 73.28 70.84 71.06 70.59 70.31 69.91 68.98 68.73 68.50 67.29 65.75 65.27 65.65 65.65 65.32 64.28
74.13 74.61 75.09 74.85 74.03 73.37 73.13 73.20 71.32 70.92 70.40 69.88 69.12 68.55 68.09 67.37 66.36 65.30 65.07 64.91 65.41 65.65
74.63 74.39 74.40 74.90 74.97 73.65 73.39 72.94 71.81 70.59 70.21 68.86 69.65 65.79 65.76 67.44 66.62 66.51 65.57 64.56 64.64 65.36
74.56 74.38 74.68 74.85 74.58 74.36 73.14 73.04 71.93 70.31 69.96 69.10 69.54 63.44 64.08 66.16 67.24 66.90 66.67 65.63 64.93 65.29
74.16 74.23 74.68 74.59 74.35 74.43 74.35 72.82 72.63 71.00 70.30 70.01 69.82 62.31 62.35 65.05 67.92 67.32 67.06 66.12 65.56 65.40
74.21 73.70 74.25 74.16 74.14 74.13 74.28 73.47 73.41 72.24 70.70 69.96 69.99 61.12 60.75 63.81 66.52 66.72 66.45 66.83 66.97 67.30
74.01 73.98 73.51 74.33 74.25 74.43 74.53 73.85 73.68 72.44 71.60 68.73 69.76 59.48 58.31 63.64 65.91 65.18 64.94 63.20 64.49 62.30
73.50 73.64 74.12 74.75 74.95 74.40 74.04 73.60 73.33 71.36 70.93 69.62 66.95 61.13 56.67 57.71 64.01 63.97 62.22 62.56 63.47 64.82
MSLP
1010.58 1011.05 1011.71 1012.31 1012.73 1012.95 1013.20 1013.60 1014.01 1014.57 1014.87 1015.09 1015.41 1015.84 1016.39 1017.01 1017.40 1017.63 1017.98 1018.25 1018.48 1018.65
1009.81 1010.34 1011.04 1011.56 1012.02 1012.22 1012.67 1013.11 1013.66 1014.08 1014.47 1014.71 1015.10 1015.57 1016.34 1016.73 1017.12 1017.35 1017.60 1017.93 1018.20 1018.32
1008.92 1009.56 1010.32 1010.97 1011.37 1011.80 1012.17 1012.62 1013.20 1013.58 1014.03 1014.48 1014.88 1015.32 1015.85 1016.31 1016.64 1017.05 1017.33 1017.64 1018.02 1018.25
1008.08 1008.82 1009.55 1010.13 1010.57 1011.01 1011.54 1011.98 1012.35 1012.90 1013.56 1013.97 1014.48 1015.00 1015.52 1015.91 1016.29 1016.77 1017.03 1017.32 1017.75 1017.93
1007.25 1008.02 1008.71 1009.12 1009.67 1010.22 1010.60 1011.02 1011.46 1012.16 1012.83 1013.37 1013.95 1014.47 1015.05 1015.57 1015.82 1016.25 1016.79 1017.08 1017.45 1017.69
1006.41 1007.07 1007.52 1007.97 1008.59 1009.28 1009.71 1010.25 1010.83 1011.35 1011.96 1012.64 1013.29 1013.91 1014.38 1014.79 1015.31 1015.76 1016.10 1016.48 1016.97 1017.24
1005.27 1005.73 1006.23 1006.86 1007.58 1008.18 1008.73 1009.48 1010.07 1010.59 1011.19 1011.83 1012.63 1013.17 1013.66 1014.27 1014.82 1015.22 1015.55 1015.97 1016.32 1016.59
1004.04 1004.62 1005.39 1006.07 1006.59 1007.23 1007.88 1008.44 1009.28 1010.02 1010.68 1011.38 1012.05 1012.48 1013.06 1013.73 1014.19 1014.63 1015.04 1015.34 1015.75 1016.03
1003.15 1003.86 1004.41 1005.13 1005.72 1006.47 1007.12 1007.67 1008.47 1009.22 1009.99 1010.82 1011.31 1011.66 1012.28 1012.85 1013.44 1013.85 1014.35 1014.91 1015.04 1015.28
1002.05 1002.87 1003.52 1004.27 1005.05 1005.62 1006.27 1007.12 1007.78 1008.58 1009.34 1010.00 1010.37 1010.72 1011.25 1011.89 1012.66 1013.23 1013.69 1014.08 1014.49 1014.85
1001.11 1001.69 1002.75 1003.55 1004.07 1004.75 1005.46 1006.12 1007.01 1007.80 1008.31 1008.87 1009.28 1009.79 1010.61 1011.35 1012.06 1012.75 1013.12 1013.51 1013.90 1014.39
999.91 1000.66 1001.57 1002.32 1002.99 1003.79 1004.62 1005.37 1006.00 1006.59 1007.28 1007.97 1008.72 1009.30 1010.04 1011.08 1011.96 1012.36 1012.69 1013.10 1013.48 1013.82
998.74 999.69 1000.24 1001.15 1002.20 1002.88 1003.63 1004.28 1005.08 1005.79 1006.35 1006.96 1007.95 1008.72 1009.62 1010.54 1011.26 1012.07 1012.52 1012.66 1012.87 1013.12
997.52 998.38 999.30 1000.38 1001.46 1002.28 1002.98 1003.72 1004.45 1005.19 1006.12 1007.05 1007.73 1008.87 1009.38 1010.18 1010.60 1011.13 1011.87 1012.25 1012.65 1012.86
Wind_Speed
14 9 8 8 7 9 9 8 9 9 9 9 8 7 6 4 4 5 4 5 4 2
14 13 9 9 8 8 8 7 10 11 11 10 9 8 7 5 5 5 5 5 4 3
16 15 10 9 12 10 9 9 11 12 12 10 9 8 8 6 5 6 4 4 5 3
15 15 14 11 11 12 12 12 12 13 12 12 10 9 9 7 7 7 6 5 6 7
16 15 15 16 13 12 13 13 13 13 14 13 12 10 11 11 9 8 8 7 6 7
17 16 18 17 16 13 13 11 12 13 15 14 13 12 12 11 9 9 8 8 7 7
19 19 18 17 16 15 15 12 12 12 13 14 13 13 13 11 10 8 8 7 8 8
20 19 17 16 16 15 15 14 11 12 11 10 11 10 13 12 12 10 8 7 7 7
19 18 18 17 16 15 13 14 10 12 12 11 10 14 16 15 11 12 11 9 7 7
19 19 19 17 15 15 16 11 11 11 12 13 13 17 20 19 10 10 10 11 8 7
19 19 17 17 17 15 13 15 12 12 14 13 13 18 19 20 10 9 9 8 8 7
20 19 18 19 17 15 14 13 13 13 14 14 11 17 16 15 7 7 8 8 7 8
19 19 19 18 17 14 14 13 11 12 13 14 11 15 17 14 8 8 6 6 6 10
19 20 18 16 12 14 14 12 12 11 9 10 10 10 16 15 9 9 7 5 4 4
Wind_Direction
194 199 198 183 183 192 187 185 173 176 175 179 175 172 169 165 174 166 183 187 189 184
197 200 192 187 179 181 179 175 174 179 184 185 176 171 164 178 184 179 187 212 202 194
199 201 191 179 183 186 188 186 180 186 188 187 177 173 169 183 186 181 201 198 206 222
198 199 201 196 192 187 188 192 187 187 188 190 184 179 180 188 181 188 202 200 207 229
195 192 200 205 202 189 194 195 191 187 191 192 191 182 185 192 196 189 195 204 202 228
197 195 201 204 202 192 200 190 188 186 190 192 189 187 195 194 192 193 194 192 199 210
197 201 203 203 201 197 199 190 192 189 189 192 188 191 194 191 195 190 193 192 205 202
198 201 202 202 201 199 201 203 189 186 188 183 185 191 190 192 198 196 196 194 201 210
197 198 201 200 198 196 195 200 182 184 180 176 192 190 186 189 194 198 199 199 210 219
194 198 200 197 194 196 196 179 181 175 176 188 198 185 188 191 190 194 194 199 199 220
196 196 195 195 198 192 187 189 179 181 188 191 198 184 184 189 186 188 204 199 197 204
196 193 190 197 195 188 181 187 187 187 186 190 191 183 175 168 171 190 199 204 195 205
193 192 192 191 191 186 185 187 183 184 185 187 175 168 161 168 174 193 201 192 209 206
190 190 189 183 178 181 184 173 178 170 160 160 159 163 167 175 177 192 196 191 209 221